Wind_Speed
44 44 44 43 43 42 42 41 40 40 39 39 38 37 36 35 35 34 33 32 32 31 30 29 28 27 26 26 26 26 25 25 25 24 24 24 23 24 23 23 23 23 23 22 22 22 21 21 20 20 19 19 19 19 19 19 19 19 19 19 19 19 20 20 19 18 17 18 18 17 17 16 17 17 17 14 11 9 10 9 11 15 19 20 20 20 19 17
45 46 45 45 44 44 43 43 42 41 41 40 39 39 38 37 36 35 35 34 33 32 31 30 29 28 27 27 26 26 26 26 25 25 25 24 24 24 24 24 24 24 23 23 23 22 22 22 22 21 21 20 20 21 21 21 21 21 21 21 20 21 21 21 20 20 19 19 20 20 19 18 17 18 18 15 12 12 12 10 11 14 17 19 20 20 20 19
47 47 46 46 46 45 45 44 43 43 42 41 41 40 39 38 37 36 36 35 34 33 32 31 30 29 28 28 27 27 26 26 26 25 25 25 25 25 25 24 24 24 24 24 24 24 24 23 23 23 23 22 22 23 23 23 23 23 23 22 22 22 22 22 22 22 21 21 22 23 22 20 20 19 19 17 14 16 16 12 13 15 16 18 20 21 21 20
48 48 47 47 46 46 46 46 45 44 43 42 42 41 40 39 38 38 37 36 35 34 33 32 31 30 29 29 28 27 27 27 26 26 26 26 26 26 26 26 25 25 25 25 25 25 25 25 25 25 25 25 25 25 25 24 24 24 24 24 24 24 23 23 23 23 23 23 23 24 24 22 22 22 20 19 17 18 19 17 16 17 18 19 20 21 22 22
49 49 48 48 48 47 47 47 46 45 44 44 43 42 41 40 39 39 38 38 36 35 34 33 32 31 31 30 29 28 28 28 28 28 27 27 27 27 27 27 27 27 27 27 26 26 26 26 27 27 26 26 26 26 26 26 26 26 26 26 26 25 24 24 25 24 24 25 26 26 25 24 24 24 22 22 22 21 21 21 21 20 20 21 22 22 22 23
49 49 50 49 49 48 48 47 47 46 46 45 44 44 43 42 41 40 40 39 38 37 36 35 34 33 32 31 31 30 29 29 30 29 29 29 28 28 28 28 28 28 28 28 28 28 28 27 28 28 28 27 27 27 27 27 27 27 27 27 28 27 26 25 26 26 25 26 28 28 27 26 26 25 22 23 25 25 23 23 24 24 24 23 23 24 24 24
49 50 50 50 50 50 49 48 48 47 47 46 46 45 44 44 43 42 41 41 40 39 38 37 36 35 34 33 33 32 31 30 32 32 30 31 30 30 30 30 30 30 29 29 29 29 29 28 28 28 28 28 28 28 28 28 29 29 29 29 29 30 28 27 27 26 27 28 29 30 29 28 29 26 22 24 26 27 26 25 26 27 27 26 26 25 25 25
49 50 50 51 51 51 50 50 49 49 48 48 47 47 46 45 44 44 43 43 42 41 40 39 38 37 36 35 35 35 33 32 34 34 33 33 32 32 31 31 31 31 31 30 30 30 30 29 29 29 30 30 29 30 29 30 30 31 31 31 31 31 30 29 28 27 28 30 31 32 31 30 31 28 25 26 28 27 27 27 28 29 29 29 29 29 28 28
49 50 50 50 51 51 51 51 51 50 50 49 49 48 47 46 45 45 44 44 43 43 42 40 40 38 38 37 37 38 35 33 36 37 35 34 33 33 33 32 32 32 32 31 31 31 31 31 30 30 31 31 31 31 31 31 32 32 32 33 33 32 31 31 30 29 30 32 32 33 33 32 32 30 28 29 30 29 29 30 30 31 31 31 32 33 33 32
49 50 50 51 51 52 52 52 52 51 51 51 50 49 48 47 46 46 45 45 44 44 43 42 41 40 40 39 39 40 37 35 38 38 37 36 35 35 34 34 33 33 33 33 33 33 33 32 32 32 32 33 33 32 32 32 32 33 34 35 35 34 33 32 31 31 32 33 33 34 34 34 33 31 30 31 32 31 31 32 33 33 33 33 34 35 36 36
50 50 50 51 52 52 53 53 52 52 52 52 51 50 49 48 47 47 46 46 45 44 44 43 43 42 42 41 42 43 38 38 40 39 38 38 37 36 36 35 35 35 34 34 34 34 34 34 34 33 33 34 34 34 34 34 34 34 35 36 36 36 35 34 33 34 34 35 35 35 37 36 34 32 32 32 34 34 34 35 35 35 35 35 35 36 36 37
51 51 51 52 53 53 53 53 53 53 53 53 52 51 51 50 49 49 48 48 47 46 45 44 44 43 43 43 45 44 41 40 40 40 40 39 38 38 37 37 37 36 36 36 36 36 35 35 35 35 35 36 36 36 35 36 36 36 37 37 37 37 37 36 36 36 36 35 35 36 39 39 36 35 35 34 34 36 37 38 38 37 37 37 37 37 37 38
51 52 53 53 53 53 53 54 54 54 54 54 54 53 52 51 51 51 50 50 49 48 47 46 45 45 44 46 47 45 44 43 42 41 41 41 40 40 40 39 38 38 38 38 38 38 37 37 37 36 36 37 37 37 36 37 38 37 38 38 38 38 38 38 38 38 37 35 36 36 40 42 39 37 37 35 36 37 39 40 40 40 40 40 40 40 40 40
52 52 54 54 54 54 53 54 54 55 55 55 55 54 54 53 52 52 52 51 50 49 49 47 47 46 45 47 48 46 45 45 44 43 43 43 43 42 42 41 40 40 40 40 40 39 39 39 38 38 38 39 39 39 38 39 39 38 38 38 38 39 41 42 40 39 37 36 37 37 40 44 43 40 38 37 38 40 42 42 42 42 42 42 42 42 42 42
52 53 54 54 54 54 54 55 55 55 56 56 56 55 55 54 53 53 53 52 52 51 50 49 48 47 47 48 49 47 47 46 45 45 44 44 44 43 43 42 42 42 41 41 41 41 40 40 40 40 41 41 41 41 41 40 40 40 38 38 40 41 44 45 42 40 38 37 38 39 40 46 47 43 40 40 42 43 44 44 44 44 44 44 44 43 43 43
51 53 54 54 55 55 55 55 55 56 56 57 56 56 56 55 55 54 54 53 53 53 52 51 50 49 48 50 50 49 49 47 46 46 45 45 44 44 44 43 43 42 42 42 42 41 41 41 41 41 42 44 44 44 42 40 41 41 39 40 42 43 45 47 45 41 39 39 39 41 42 46 49 46 43 44 45 45 45 46 46 46 46 45 45 45 45 45
50 51 53 55 55 55 55 55 56 56 57 57 57 57 57 57 56 56 55 55 54 54 53 52 52 50 49 51 52 52 51 49 48 47 47 46 46 45 44 44 43 43 43 42 42 42 41 41 41 42 43 46 47 45 41 40 42 42 41 41 43 44 45 47 47 42 39 40 41 42 43 46 48 45 45 46 46 46 46 46 47 47 47 46 46 46 46 46
51 51 52 54 55 55 55 55 56 57 57 57 57 58 58 58 58 57 57 56 55 55 54 53 53 51 51 52 53 53 53 51 50 49 49 48 48 47 46 45 45 44 43 43 43 43 42 41 41 41 45 47 47 44 41 41 43 43 43 42 43 44 45 47 46 41 39 41 42 42 43 46 46 44 45 47 46 47 47 47 47 47 47 47 47 47 47 47
52 52 52 53 55 55 55 55 56 57 57 57 58 58 58 58 58 58 57 57 56 56 55 54 53 52 53 54 55 54 54 53 52 51 51 50 50 49 48 47 46 46 45 45 45 44 43 42 41 43 47 48 45 43 42 43 44 44 43 43 43 44 45 47 44 41 41 41 43 42 41 45 46 44 45 47 47 47 47 48 48 48 49 49 49 49 50 50
53 53 53 53 54 55 56 56 56 57 57 57 57 58 58 58 58 58 57 57 57 57 55 54 54 53 53 55 55 55 54 54 53 53 53 52 52 51 50 49 49 48 48 48 47 46 46 43 43 47 50 48 45 45 45 44 44 44 44 44 45 45 47 47 45 44 44 43 45 45 43 45 46 45 47 48 49 49 49 50 50 50 50 51 51 51 52 52
55 54 54 54 55 56 57 57 57 57 56 57 57 57 58 58 58 58 58 57 57 57 55 54 53 53 54 54 54 54 54 54 53 54 54 53 53 53 52 52 51 51 51 50 49 49 48 45 47 52 51 49 48 48 47 46 46 46 46 46 46 47 48 48 46 46 46 45 47 47 46 47 47 48 50 50 51 51 51 52 52 52 52 53 53 54 54 54
57 55 55 55 55 57 58 58 58 57 57 57 57 57 58 58 58 58 58 56 56 57 56 55 54 54 55 54 53 54 53 53 54 54 55 54 54 54 54 53 53 53 52 51 51 51 49 47 51 54 52 51 51 50 49 48 48 48 48 48 48 49 49 48 48 48 48 47 48 48 49 49 49 50 52 52 53 53 54 54 54 54 55 55 55 56 56 57
59 56 55 54 55 56 58 59 59 58 58 57 57 58 58 59 58 58 57 55 56 57 56 56 55 55 56 55 54 54 52 53 55 55 55 55 55 55 55 54 54 53 51 52 53 52 49 49 52 54 53 52 52 51 51 50 50 50 50 49 50 51 50 49 50 49 48 48 48 49 49 50 51 52 53 54 54 55 55 56 56 56 57 57 57 58 59 59
60 58 56 54 53 54 57 59 59 60 60 58 58 59 59 59 59 58 58 56 54 56 58 57 56 55 57 57 55 54 53 54 55 55 56 56 56 56 56 56 55 53 52 54 54 51 50 51 53 54 54 53 52 52 52 52 51 51 50 50 51 52 51 50 51 50 49 49 50 50 49 51 53 53 54 55 56 56 57 57 58 58 58 59 59 60 61 61
61 60 58 55 53 52 53 54 57 61 61 60 60 60 60 60 60 60 60 58 54 53 58 59 57 56 56 57 56 56 56 55 55 57 58 57 57 57 57 56 55 54 55 55 54 51 51 53 54 54 54 53 52 53 54 53 52 51 51 52 52 53 52 52 52 51 51 50 50 50 49 49 52 54 54 55 56 56 57 58 59 59 60 60 60 61 61 62
62 60 58 56 53 51 49 50 55 58 58 61 62 61 61 60 62 62 62 62 54 50 55 58 58 56 55 58 57 59 58 54 56 59 59 59 59 58 58 56 55 55 56 56 54 51 52 55 55 55 55 54 54 54 55 54 52 52 54 55 54 54 54 54 53 52 51 51 50 51 50 48 51 55 56 56 57 57 58 59 60 60 61 62 62 62 63 63
62 61 60 58 55 52 50 51 53 52 52 58 60 62 63 63 64 63 65 65 52 46 52 56 57 57 56 58 59 61 59 56 59 61 60 61 60 59 58 56 56 57 57 56 54 52 54 57 56 56 56 56 56 57 57 55 53 56 58 57 56 56 56 55 54 52 51 51 51 52 54 51 51 55 58 58 59 60 61 62 63 63 64 64 65 65 65 66
64 63 62 61 58 55 53 53 53 53 54 57 57 60 63 65 67 65 68 65 47 43 50 53 55 57 58 59 61 62 61 59 61 62 62 62 60 59 59 57 58 58 58 57 55 55 57 58 58 59 58 58 59 60 58 56 57 59 60 59 58 58 57 55 54 53 52 52 52 54 57 54 52 54 57 58 60 61 62 63 65 66 67 67 68 68 69 69
67 65 64 63 61 58 57 56 56 59 60 60 60 61 61 63 65 67 71 63 44 40 48 51 55 58 59 61 62 63 63 62 62 62 62 62 60 60 60 59 59 59 59 59 59 59 60 61 61 61 61 61 62 61 60 59 60 61 62 61 60 58 57 55 54 54 54 53 53 56 58 56 53 54 56 58 60 62 63 64 65 66 67 68 69 70 71 72
70 68 67 65 62 61 62 61 61 64 64 64 65 64 64 63 62 68 71 58 43 42 46 50 56 58 61 63 64 65 65 64 63 62 62 61 60 60 60 60 60 60 61 61 62 63 62 63 64 64 64 64 64 63 63 62 62 63 63 61 60 58 56 56 55 56 56 54 55 57 58 57 55 55 57 60 62 64 66 67 67 67 68 68 69 71 72 73
71 70 69 66 64 64 64 62 63 66 67 66 66 66 66 65 66 70 65 51 47 48 47 51 55 59 62 64 65 65 64 64 63 62 61 61 60 60 60 60 61 61 61 62 64 65 64 65 65 65 65 65 66 66 65 65 65 64 63 62 60 58 57 57 57 58 58 56 57 58 58 58 57 56 59 61 62 65 67 68 70 70 71 71 72 72 73 74
72 70 70 68 66 65 63 63 66 69 68 67 68 69 69 70 71 68 58 52 55 52 47 51 56 60 64 64 64 65 64 64 63 62 61 60 60 60 60 60 60 62 62 63 66 65 64 65 66 66 67 67 68 67 67 67 65 64 63 62 60 59 59 58 59 60 60 60 60 60 60 59 56 57 59 61 62 64 66 69 71 73 73 74 74 75 75 76
74 73 72 70 68 67 65 65 68 69 68 68 70 72 74 74 71 62 56 58 60 54 50 53 56 60 63 63 64 64 64 63 62 61 61 60 60 60 60 60 61 62 63 64 65 65 65 67 67 68 69 69 69 69 68 67 65 64 63 62 62 62 62 61 62 63 63 62 61 61 60 58 55 58 61 63 65 66 68 71 73 74 75 76 76 77 78 80
76 75 75 74 71 69 68 68 68 69 70 70 72 75 78 77 69 62 60 61 60 57 54 55 56 58 59 60 61 62 62 62 62 62 61 61 60 60 60 61 62 63 64 66 67 67 68 68 69 70 71 71 70 69 68 67 65 65 64 65 65 66 66 65 65 65 65 64 62 61 60 58 58 61 64 65 68 71 73 75 76 76 77 78 79 80 80 81
78 77 76 76 74 72 71 71 71 71 72 73 75 79 80 77 70 66 65 64 63 60 57 56 57 57 56 57 58 59 60 60 60 61 60 60 59 59 60 61 62 64 66 67 68 68 69 68 68 69 71 72 71 69 68 67 67 66 66 67 67 70 71 70 69 68 68 67 64 63 63 62 63 65 66 68 70 73 75 77 78 79 79 80 82 83 84 84
78 78 78 77 75 75 74 75 74 73 75 77 79 80 79 76 73 72 69 68 67 63 59 58 57 57 58 58 60 60 60 60 59 59 58 59 59 59 60 61 63 65 66 67 68 68 68 68 67 68 69 70 70 69 68 68 68 68 68 69 71 73 74 74 73 72 72 71 67 66 66 65 65 66 67 70 73 75 77 79 80 81 81 83 84 87 89 88
75 76 79 78 77 76 77 78 78 77 78 81 82 80 77 77 77 75 73 71 69 66 63 60 59 60 61 61 62 64 64 64 62 62 62 63 63 62 64 65 65 66 66 67 67 67 67 68 68 68 69 69 70 70 70 70 71 71 72 73 75 76 76 77 77 76 76 76 71 67 65 64 64 66 68 72 75 77 79 80 82 83 84 86 88 90 91 88
74 75 78 79 79 78 78 80 81 80 82 85 85 81 76 77 77 76 75 74 72 69 66 64 63 64 65 64 65 66 67 66 65 66 67 69 68 67 69 70 68 68 69 69 68 68 68 68 68 69 69 70 71 71 71 72 74 75 76 76 77 78 79 80 81 80 80 79 75 70 67 66 68 70 74 77 79 82 83 84 85 87 88 90 90 90 88 86
78 77 77 77 79 80 80 82 84 85 86 87 86 81 77 77 76 76 76 76 75 73 69 67 67 67 67 67 68 69 69 68 67 69 70 71 70 70 71 72 72 72 73 72 72 71 70 70 69 69 71 72 72 72 73 75 77 78 78 78 79 80 82 83 83 83 83 83 81 77 72 71 73 77 81 84 86 88 88 88 89 89 89 89 88 87 86 87
82 81 77 75 77 80 83 86 89 90 89 87 84 82 79 79 79 77 77 78 79 77 73 71 70 69 68 68 69 70 71 71 71 72 72 72 72 72 73 74 75 76 77 77 76 75 74 73 73 73 73 74 74 74 75 77 78 78 78 79 81 83 85 86 86 86 86 86 86 84 80 76 78 85 88 90 91 92 92 92 91 89 88 87 87 87 88 89
85 83 79 76 77 80 84 90 92 92 89 86 85 84 83 83 82 80 79 81 82 82 79 76 74 73 72 72 72 73 74 75 75 76 76 76 76 76 77 78 79 80 80 81 80 79 79 78 78 77 76 76 77 78 79 79 79 79 80 81 83 86 88 90 89 88 88 90 90 91 88 82 84 91 94 94 94 94 94 94 93 92 91 90 90 89 90 92
88 85 81 79 80 81 86 91 93 93 91 88 86 86 87 87 86 85 84 84 85 86 85 82 79 77 76 75 75 76 78 79 78 79 80 80 80 80 81 81 82 83 83 84 83 84 84 84 83 82 80 80 80 81 82 83 83 84 85 86 88 91 92 93 93 92 92 93 93 96 95 89 88 93 96 96 95 94 94 95 94 94 93 93 92 92 94 96
90 87 84 84 84 84 87 92 94 94 92 90 89 89 89 89 89 89 88 88 89 89 89 87 84 82 81 79 78 78 80 81 81 81 82 83 83 84 85 85 86 86 87 87 87 88 89 88 87 86 85 83 83 83 84 86 87 89 90 92 93 95 96 98 99 98 98 97 97 100 100 93 90 93 95 96 95 93 93 94 94 94 95 95 96 96 98 100
89 89 88 87 87 88 90 92 94 94 92 91 91 91 91 90 90 90 89 89 90 90 90 90 89 88 86 84 83 82 83 83 84 84 85 85 85 86 87 88 88 89 90 89 90 92 93 93 91 89 87 86 85 86 87 90 92 94 94 95 96 98 99 101 102 103 103 100 100 103 102 96 95 96 96 96 96 95 94 94 95 96 97 98 99 101 103 106
89 90 90 90 89 88 90 92 93 94 94 93 92 92 92 91 91 90 91 91 92 92 92 91 91 90 89 88 87 87 87 87 88 89 89 90 90 90 91 91 92 92 92 92 93 95 96 96 95 92 90 89 89 90 91 93 96 96 96 97 98 98 98 99 101 103 103 101 103 104 103 100 99 98 98 98 97 96 97 97 99 100 101 102 105 107 110 111
94 91 91 92 92 90 88 90 93 95 95 94 93 93 92 92 91 90 90 90 91 92 92 92 91 91 91 91 90 90 90 91 92 94 95 97 97 96 96 96 95 94 94 95 96 98 99 99 97 96 94 93 93 94 94 94 95 96 95 95 95 95 95 95 97 98 99 102 103 102 101 100 97 96 99 100 99 100 103 104 104 105 107 109 112 114 115 116
103 97 92 91 94 94 91 89 91 94 96 96 96 95 94 93 93 93 92 91 90 91 91 92 93 93 93 93 92 92 93 94 96 98 100 102 102 100 99 98 98 96 95 95 96 98 99 99 99 98 97 97 97 98 97 95 94 94 93 92 91 91 91 91 91 91 94 99 99 96 97 98 96 97 102 104 105 107 109 110 110 112 114 116 117 118 120 122
108 105 100 96 94 95 95 93 92 94 96 98 99 99 97 96 94 95 95 94 94 93 93 93 95 95 96 96 96 96 97 98 100 101 103 104 104 102 102 101 101 100 98 97 96 97 97 97 97 97 98 97 98 98 97 95 94 93 91 89 88 88 88 89 91 93 97 99 97 96 99 100 99 103 108 111 112 113 114 115 117 119 120 120 120 122 124 126
108 106 105 103 100 97 97 97 97 96 96 98 100 100 100 99 98 98 99 98 98 97 96 97 98 98 99 100 101 102 102 102 103 103 103 103 103 102 102 103 103 102 101 100 99 99 98 97 96 97 97 97 97 97 97 96 95 93 91 88 86 86 90 94 97 100 103 104 102 104 107 105 105 110 115 116 117 118 119 121 122 123 123 123 125 127 128 130
110 108 106 106 104 102 101 100 100 99 97 98 99 98 98 99 100 101 103 103 104 104 104 104 104 104 104 104 105 105 105 105 105 104 103 102 102 102 102 103 104 104 104 103 103 102 101 101 100 100 100 99 99 99 100 100 99 98 94 88 87 92 98 102 103 105 107 108 109 112 112 110 111 116 120 120 121 123 124 125 126 127 128 128 130 131 132 133
112 112 111 110 108 107 106 104 102 101 99 97 97 96 95 94 95 97 99 101 102 104 106 107 108 108 106 103 101 100 101 102 103 103 102 102 101 101 101 102 104 105 106 106 105 105 104 104 104 104 105 104 103 104 105 105 106 103 95 90 95 102 106 107 108 109 111 113 116 118 117 116 119 122 124 125 126 128 129 129 131 133 133 134 134 134 134 135
114 113 114 114 113 112 111 108 105 103 101 99 98 97 96 95 94 95 96 97 97 98 100 102 104 104 103 100 97 98 99 100 101 101 102 102 102 103 103 104 105 106 107 107 107 107 106 106 107 108 109 108 107 108 109 111 112 107 98 97 104 109 110 111 112 113 115 118 121 122 122 123 125 127 127 129 131 132 133 134 136 137 138 137 137 137 137 137
Wind_Direction
238 239 240 242 243 244 246 247 248 250 251 252 253 254 255 256 257 258 259 259 260 261 262 263 265 265 266 266 267 268 269 270 271 272 272 272 272 272 272 271 270 270 270 269 269 269 270 270 270 271 271 271 271 271 271 272 273 273 273 273 274 275 276 279 281 285 288 290 292 295 295 297 301 303 306 315 329 324 309 307 302 301 305 307 309 314 315 316
239 239 240 241 242 243 245 246 247 249 250 252 253 254 255 255 256 257 258 259 260 261 262 263 263 264 264 265 266 267 268 269 269 270 271 272 272 272 272 271 271 270 269 268 267 267 267 267 268 268 268 268 268 268 269 269 270 271 272 273 273 274 276 278 280 283 285 287 289 291 292 295 296 297 299 306 316 308 298 300 298 297 300 302 306 309 311 314
239 239 240 241 242 243 244 245 246 248 249 251 252 253 254 255 256 257 258 258 259 260 261 261 262 262 262 263 264 265 266 267 267 268 269 270 270 270 270 270 270 270 269 268 267 267 267 267 267 267 267 267 267 267 268 269 270 271 272 273 274 274 275 277 279 280 282 284 286 288 291 294 295 295 296 300 305 299 293 293 295 295 296 297 300 303 306 309
239 239 240 241 242 243 245 246 246 247 248 250 251 253 254 255 256 256 257 258 258 259 259 259 260 260 261 262 262 264 265 265 265 266 266 267 268 268 269 269 269 269 268 268 268 267 267 268 268 268 268 268 268 268 269 270 270 271 273 273 274 275 276 277 277 279 281 282 284 286 289 293 294 295 297 300 298 292 292 292 291 291 293 295 296 299 302 305
240 240 240 240 241 242 244 245 247 247 248 249 251 252 253 254 255 256 256 257 257 257 257 257 258 258 259 260 261 261 262 263 263 263 264 264 265 266 266 267 267 268 268 268 268 268 268 269 269 269 269 269 270 270 271 271 271 272 273 274 275 275 276 277 278 280 281 282 282 283 286 289 291 294 298 299 295 291 292 292 291 290 289 290 291 294 297 300
242 241 240 240 241 242 243 244 246 247 248 249 250 251 252 253 254 255 256 257 257 257 257 256 257 257 258 258 259 259 259 260 261 261 262 262 262 263 264 266 267 267 268 269 269 269 270 270 271 271 271 271 271 271 271 272 273 273 274 275 276 277 277 277 279 281 281 282 282 283 286 287 288 293 296 295 293 293 293 293 293 292 290 289 289 290 292 294
242 242 242 242 241 242 242 243 244 246 247 248 249 250 251 252 253 254 255 256 257 257 257 257 257 257 257 258 257 257 257 258 260 260 260 261 262 262 264 265 266 268 269 270 271 271 272 272 272 273 273 272 272 272 272 273 274 274 275 275 276 278 279 278 279 281 282 282 283 284 286 287 288 293 295 291 289 291 294 295 294 293 294 294 294 293 292 292
242 242 243 243 243 243 243 243 244 244 245 246 248 249 250 251 252 253 254 255 256 257 257 257 258 258 258 257 257 257 255 257 259 259 259 260 262 263 264 266 267 269 270 271 272 272 272 272 273 273 273 274 273 273 274 275 275 276 277 277 277 279 280 281 281 281 281 282 283 284 287 288 289 294 297 291 288 291 295 296 294 294 296 298 299 298 296 295
242 242 242 243 243 244 244 244 244 245 245 246 247 247 249 250 251 252 254 255 256 257 257 258 258 258 258 258 258 257 256 257 259 260 260 261 263 264 265 267 268 269 270 271 271 272 272 273 273 274 275 275 275 276 276 276 276 278 279 279 279 280 281 282 284 283 281 281 282 284 287 288 289 295 297 292 290 293 294 293 292 294 296 299 300 300 300 299
242 242 242 242 243 243 244 244 245 246 246 247 247 248 248 249 250 252 253 254 255 256 257 258 258 258 259 259 259 258 258 258 260 261 263 263 264 265 266 267 268 268 269 270 271 272 273 273 274 275 276 276 277 277 277 277 277 278 279 280 281 282 283 284 285 284 282 282 283 285 287 287 289 293 293 289 291 293 291 290 291 292 295 296 297 298 299 300
243 243 242 242 242 243 243 244 244 245 246 247 248 248 249 249 250 251 252 253 254 255 256 257 258 258 258 259 259 259 259 258 260 262 264 265 266 266 266 267 268 268 269 270 271 272 273 274 274 275 276 276 277 277 277 277 278 278 279 280 282 283 285 285 284 282 282 283 286 287 287 286 289 291 288 287 289 291 290 289 290 292 293 293 293 294 295 297
243 243 243 242 242 243 243 243 244 245 245 246 247 248 248 249 249 250 251 252 253 254 255 256 257 257 258 259 259 260 259 259 260 262 264 266 267 267 267 268 268 269 270 271 271 272 273 273 274 274 275 275 276 276 277 277 277 278 279 280 282 284 285 284 282 280 281 284 286 287 286 286 288 288 287 287 288 288 289 289 291 292 292 292 293 293 294 294
244 243 243 242 242 243 244 244 245 245 246 246 247 247 248 248 249 249 250 251 252 253 254 255 256 257 258 259 260 260 261 260 260 262 263 265 266 267 268 268 269 269 270 271 271 272 272 273 273 274 273 273 274 274 275 275 276 277 278 280 283 284 282 280 279 280 283 285 287 286 285 285 287 286 286 289 289 286 286 288 291 292 292 293 293 294 293 293
245 244 243 243 242 242 243 244 245 246 246 247 247 248 248 249 249 250 250 251 252 253 254 255 256 257 258 259 261 261 262 262 262 261 262 264 264 266 266 267 268 269 269 269 270 271 271 272 272 273 273 272 272 273 273 273 275 276 278 281 282 281 278 277 278 281 284 286 286 286 285 285 285 286 288 291 289 286 286 288 290 291 292 293 293 293 293 293
246 245 245 244 243 243 242 243 244 245 246 247 247 248 248 249 250 250 251 252 252 253 254 254 255 256 257 259 261 262 262 262 262 262 262 262 263 264 265 266 267 268 268 269 269 270 270 271 271 272 272 272 272 272 272 273 275 277 279 280 278 277 277 278 280 282 284 285 285 285 284 283 285 289 292 291 288 287 289 290 290 291 291 292 292 292 292 292
247 246 245 245 245 245 244 243 244 245 245 246 247 247 248 248 249 250 250 251 252 252 253 254 255 255 257 259 260 261 261 261 261 262 262 263 263 264 265 266 267 268 269 269 269 270 270 270 270 271 272 272 271 271 272 275 276 277 278 276 275 276 278 280 281 282 284 285 284 283 281 281 285 290 292 289 287 288 289 290 290 290 291 291 292 292 292 292
249 248 246 245 246 246 246 246 245 245 246 246 246 247 247 248 248 249 249 250 251 251 252 253 254 254 256 258 259 260 260 260 261 261 262 263 263 264 264 265 266 267 268 269 270 270 270 270 271 271 272 271 270 271 274 276 276 276 275 274 274 276 278 279 280 284 286 285 283 281 281 281 284 288 288 287 287 288 288 289 289 290 290 291 291 291 291 291
251 250 248 246 246 246 247 247 247 247 247 247 247 247 247 247 247 248 248 249 250 250 251 251 253 253 254 255 257 258 259 260 260 261 262 263 263 264 264 264 265 266 267 268 268 269 270 271 272 272 271 269 270 273 275 274 274 274 274 275 276 277 277 278 281 286 287 285 282 281 282 283 284 286 286 286 287 287 287 288 289 289 290 290 290 290 290 290
252 252 250 249 247 247 247 247 247 248 248 248 248 248 248 248 248 248 249 250 250 251 251 252 252 252 253 254 255 257 258 259 260 261 261 262 262 263 264 264 265 265 266 266 266 268 269 270 271 270 268 269 272 274 273 272 273 274 275 276 276 277 277 278 282 286 285 284 283 283 284 284 285 287 286 285 286 286 287 288 288 288 289 289 289 290 289 289
252 253 252 251 249 248 248 248 249 249 249 250 250 250 250 250 250 250 250 251 252 253 253 253 254 255 255 256 258 259 260 262 262 263 263 263 263 263 263 263 264 264 264 264 266 267 267 268 269 268 267 270 272 272 272 273 274 275 275 276 276 277 278 280 283 284 283 284 284 284 284 284 286 287 285 285 285 286 286 287 287 288 288 288 289 289 288 288
250 251 252 252 251 250 249 249 249 250 250 251 251 252 252 252 251 251 251 251 252 253 254 255 256 257 258 259 261 262 263 264 265 265 265 265 265 264 264 263 264 264 264 265 266 266 266 267 266 266 268 270 271 271 273 274 275 275 275 276 276 277 278 280 283 283 283 284 283 284 285 284 285 285 285 285 285 285 286 286 287 287 287 288 288 287 287 286
248 250 251 252 251 250 249 249 250 250 250 251 251 252 252 253 252 252 252 252 253 254 254 255 255 257 258 259 260 262 263 265 265 265 265 265 265 265 265 265 264 264 265 266 266 265 266 266 265 267 269 270 271 272 273 274 274 274 275 276 276 276 278 280 280 281 282 282 283 284 285 285 285 284 284 284 284 284 285 285 286 286 286 286 286 285 285 285
248 249 250 251 251 251 250 250 250 251 251 251 252 252 252 252 252 253 252 252 253 255 255 255 255 256 257 258 259 260 263 264 264 265 265 265 265 265 265 265 265 265 266 266 265 266 266 266 266 267 268 269 271 272 272 273 273 273 274 275 276 276 277 278 279 280 281 281 282 282 283 284 283 283 283 283 283 283 284 285 285 285 285 284 284 284 283 284
247 248 249 251 251 252 251 251 251 251 252 252 252 252 253 253 253 253 252 251 251 255 256 255 255 256 257 258 258 260 261 261 263 263 264 264 264 264 265 265 266 267 267 266 266 267 267 266 266 267 268 269 270 271 271 272 272 273 274 275 275 276 277 278 278 279 280 281 281 282 283 283 283 282 282 282 283 283 284 284 284 284 283 283 283 283 283 283
247 248 248 249 250 251 252 254 253 253 253 253 253 253 253 254 254 253 252 250 247 251 256 257 256 255 257 258 258 258 258 259 261 261 261 262 262 263 263 264 266 267 268 268 268 269 269 268 268 268 269 270 270 271 271 271 272 274 274 274 274 275 277 277 278 279 280 281 281 281 281 282 282 282 282 283 284 284 284 284 283 283 283 282 282 282 282 282
246 248 248 249 249 250 251 253 255 256 256 256 255 254 254 254 254 254 253 251 246 247 254 257 258 256 257 258 258 257 256 257 259 259 259 259 260 261 262 264 266 267 267 268 270 271 270 269 269 269 270 270 270 270 270 272 274 274 273 273 274 276 276 277 278 278 279 279 280 280 279 279 281 283 284 285 286 285 284 284 284 283 283 283 282 282 282 282
246 247 248 249 249 249 249 250 253 257 260 260 259 258 256 255 255 254 254 252 247 246 251 256 258 258 257 257 257 257 256 256 257 257 258 258 259 261 262 263 265 266 267 268 270 270 269 269 269 270 270 270 270 270 271 273 274 273 273 274 275 276 276 277 277 277 278 278 279 280 279 279 281 283 285 287 287 286 285 285 284 284 284 284 283 283 282 282
245 246 248 249 249 250 251 252 254 256 258 260 261 260 259 257 256 256 256 254 249 247 250 254 257 258 258 257 257 257 256 255 255 257 257 258 259 261 262 263 263 264 266 267 268 267 267 268 269 269 269 269 269 270 272 273 273 273 274 275 275 275 276 276 277 277 277 278 279 280 280 281 282 283 285 286 285 284 284 284 283 284 284 284 284 283 283 282
245 246 247 248 249 249 251 252 253 254 255 257 258 260 260 260 259 259 258 256 254 250 250 252 254 255 256 256 256 256 256 255 255 256 257 259 260 261 262 263 263 264 265 266 266 266 266 267 268 268 269 269 270 271 273 273 273 274 274 274 274 275 276 277 277 278 278 279 280 279 280 282 282 283 283 282 281 281 281 281 281 282 282 283 283 283 283 282
245 245 246 247 248 248 248 249 250 252 252 253 255 257 258 259 260 260 257 256 256 251 246 248 250 252 254 255 255 255 256 256 256 257 258 259 261 262 263 264 264 264 265 266 266 266 266 267 268 269 270 271 272 272 273 274 274 274 274 273 274 275 276 277 278 278 279 280 280 280 282 283 283 283 282 280 280 280 279 279 280 280 280 280 281 282 282 282
246 246 247 248 248 248 248 249 251 252 252 253 254 256 257 257 256 256 255 255 253 246 243 245 247 250 252 253 254 256 257 257 258 258 259 260 261 262 263 264 265 265 266 266 265 266 267 268 269 270 271 272 272 273 274 274 274 273 273 273 274 275 276 277 278 278 279 279 279 280 281 283 284 284 282 281 280 280 281 281 281 281 281 281 282 282 283 283
248 248 248 248 248 249 250 250 251 252 253 254 255 256 257 257 256 257 257 255 250 245 243 245 244 246 249 251 253 255 257 258 259 260 261 261 262 263 264 264 265 266 266 266 266 267 268 269 270 271 271 271 272 273 273 273 273 273 272 273 274 274 275 275 276 276 278 279 279 280 280 281 283 283 281 280 280 281 283 283 283 284 285 285 286 286 286 285
248 249 248 248 248 249 250 250 251 253 254 255 256 257 256 256 257 261 260 256 252 247 244 245 244 245 247 250 252 254 256 258 259 260 261 261 262 262 263 264 264 265 265 266 267 268 269 269 269 270 270 271 271 272 272 272 272 271 271 271 273 273 273 273 274 276 278 279 279 279 280 281 280 279 279 280 281 282 282 283 284 285 286 286 287 287 287 287
248 249 250 249 248 249 250 250 251 253 254 255 257 257 257 256 257 260 259 257 255 250 246 245 245 244 245 248 251 253 255 256 258 259 259 260 261 262 263 263 263 264 265 265 266 267 267 268 268 269 270 270 271 271 271 270 269 269 270 271 272 272 272 271 273 275 277 277 277 278 278 278 278 277 278 280 281 282 282 283 284 284 285 285 285 286 287 287
248 249 250 250 250 250 250 251 251 252 254 255 256 257 258 258 257 258 258 257 256 252 248 245 245 245 246 247 249 251 253 254 255 257 258 260 261 262 263 263 264 264 264 264 265 265 266 267 268 269 270 270 270 270 270 269 268 268 269 270 271 271 271 272 273 275 275 275 275 276 276 276 277 278 279 280 280 281 281 281 281 281 282 282 283 283 285 285
248 249 250 250 250 250 250 251 252 252 253 254 255 256 259 260 258 257 257 257 256 254 250 247 245 246 247 247 249 251 252 253 254 256 257 259 260 261 262 263 263 263 263 264 264 265 266 267 268 269 269 269 268 269 269 269 268 268 269 269 270 270 271 273 274 275 274 274 273 274 275 276 278 279 280 280 280 280 280 280 280 279 279 279 280 281 283 284
249 250 250 250 250 250 250 252 252 252 253 254 255 255 257 259 259 258 257 257 257 255 252 249 247 247 247 248 250 251 252 253 255 256 257 258 259 260 261 261 261 262 263 264 265 266 267 267 268 269 270 269 268 267 268 268 269 269 269 269 270 271 273 275 275 274 274 273 273 273 275 276 277 279 279 279 278 278 278 278 278 278 278 278 279 281 283 283
248 250 250 250 249 249 251 252 252 252 252 253 255 255 256 258 259 259 259 258 258 256 254 252 251 250 250 250 251 252 253 254 255 256 257 258 259 259 260 261 261 262 263 264 265 265 266 267 267 269 269 269 268 268 268 269 269 269 269 270 271 273 274 274 274 274 274 274 273 273 274 275 276 277 277 276 275 275 275 276 277 278 278 279 280 281 281 281
248 250 251 251 250 250 251 253 253 252 251 252 254 255 255 257 258 259 260 260 259 257 255 254 254 253 253 252 253 253 254 255 255 256 257 259 259 260 261 262 262 262 263 264 264 265 265 266 267 267 268 269 269 269 270 270 270 271 271 272 273 273 274 273 273 274 274 274 274 273 272 273 274 274 274 274 274 275 276 276 277 278 278 279 279 279 280 282
249 252 253 254 253 252 252 253 253 252 252 252 255 256 256 256 257 258 260 260 260 259 257 255 255 255 255 256 256 256 256 256 256 256 257 258 260 261 262 264 265 265 265 265 265 265 264 265 266 266 267 268 270 270 270 271 272 273 274 274 274 274 273 273 273 274 275 275 275 274 272 272 272 273 273 274 275 276 277 278 278 279 279 279 280 282 284 287
250 252 254 255 255 254 252 253 253 253 253 253 254 256 257 257 257 258 259 260 261 260 258 256 255 254 254 254 256 258 259 259 258 258 258 258 260 261 263 265 266 267 268 267 267 265 264 264 264 265 265 267 268 269 270 272 273 274 275 274 274 273 273 273 274 275 275 275 276 276 274 273 274 274 274 274 275 276 277 278 278 279 280 282 284 287 290 293
251 253 254 255 256 255 254 254 253 253 253 254 254 254 255 256 257 258 259 260 261 261 261 260 258 257 255 254 255 256 258 260 260 260 260 260 260 261 262 264 266 266 267 267 267 266 264 264 264 265 265 265 266 268 269 270 272 273 273 274 274 274 275 275 275 275 274 275 276 276 276 276 276 275 276 276 276 276 276 277 278 279 281 284 287 290 294 296
254 253 252 253 255 254 253 254 254 253 253 254 255 255 255 256 256 257 258 259 260 261 262 263 263 262 261 259 257 257 258 260 261 261 262 262 262 262 262 264 264 264 264 265 266 265 265 264 264 264 265 266 266 267 268 269 270 270 271 272 273 275 275 275 275 274 274 274 275 275 276 276 276 276 276 276 276 277 277 279 281 283 285 288 291 294 296 298
256 255 253 252 253 254 254 254 254 255 255 255 255 256 257 257 258 258 259 260 261 262 263 265 266 267 267 266 265 263 263 263 264 264 265 266 265 265 265 265 264 263 262 262 264 265 265 265 265 265 266 266 266 267 267 268 268 269 270 271 273 273 274 274 274 274 273 274 274 274 276 276 276 275 276 276 277 279 281 283 285 288 290 292 295 297 298 299
258 258 256 254 253 252 253 254 255 255 255 255 255 256 257 258 258 259 260 261 262 262 263 265 266 268 269 270 270 270 270 270 270 270 271 271 271 271 270 269 268 266 264 262 262 263 264 264 265 265 265 266 266 267 267 267 268 269 270 270 271 271 272 273 273 273 274 274 274 275 276 277 276 277 278 280 283 286 287 288 290 292 294 296 297 298 299 300
254 256 258 258 257 253 250 250 252 255 256 255 255 256 256 257 258 259 259 260 261 262 263 263 264 266 267 268 270 271 271 272 273 273 273 274 273 273 272 270 269 267 266 264 264 263 264 264 265 266 266 267 268 269 269 269 269 270 270 269 270 270 271 272 272 273 274 273 272 274 277 279 280 283 285 287 291 292 292 293 295 296 297 297 298 298 300 300
250 252 254 257 258 257 253 249 248 251 254 255 255 255 255 255 256 256 257 257 258 259 261 262 263 264 265 266 267 268 268 269 270 271 273 274 275 274 274 273 272 270 267 265 264 264 264 265 266 267 268 268 270 270 271 271 271 270 270 271 271 272 272 274 276 277 277 276 275 277 280 283 287 290 292 294 294 294 294 296 297 297 297 297 298 299 300 299
250 250 250 251 254 257 257 254 249 248 249 251 252 253 254 254 254 255 255 256 256 257 258 260 261 262 263 264 265 266 266 267 268 269 271 273 274 274 275 275 275 274 273 271 269 268 267 267 268 269 269 270 271 272 273 274 273 273 273 274 275 277 278 281 284 286 285 284 285 287 288 289 292 294 294 294 294 294 295 296 296 295 296 297 298 298 298 297
249 249 249 249 249 251 254 256 255 252 250 251 251 250 251 252 253 254 255 255 256 256 257 258 259 261 263 264 265 265 266 267 268 269 270 271 272 273 274 275 276 277 277 277 277 276 275 275 275 275 275 274 275 276 277 278 278 277 277 279 282 284 286 288 289 289 289 291 293 293 291 293 294 294 292 292 293 294 294 293 294 295 296 297 297 296 296 296
247 247 248 248 249 249 250 252 254 255 254 255 256 254 252 252 253 254 255 255 255 255 255 256 257 259 261 263 264 265 266 267 268 268 268 269 269 271 272 274 276 277 278 280 280 281 281 282 282 282 281 281 281 282 282 283 283 282 282 285 290 291 290 289 289 290 292 293 293 292 292 294 294 292 291 292 292 292 292 293 294 295 295 296 296 296 297 297
247 246 246 247 248 250 250 250 250 252 253 255 258 259 259 257 257 257 258 258 258 258 258 259 259 259 261 263 265 265 266 266 267 267 267 267 268 269 270 272 273 275 277 278 280 281 283 283 283 284 284 284 285 285 286 286 286 285 288 292 293 290 288 289 291 292 292 291 291 291 292 293 292 291 291 291 291 291 293 295 295 295 296 296 297 298 298 299
245 246 246 247 247 247 249 250 250 250 251 252 254 256 257 258 258 259 260 261 262 261 262 262 263 264 265 267 267 267 266 266 267 267 267 268 268 269 270 271 271 273 274 276 278 280 281 282 283 283 284 285 286 286 286 285 286 289 292 292 289 287 289 290 290 290 289 289 290 291 291 291 290 290 290 290 291 292 294 295 296 296 297 298 299 299 300 301
Height
10769 10771 10772 10774 10775 10777 10778 10779 10780 10782 10783 10784 10785 10786 10787 10788 10789 10790 10791 10792 10793 10793 10794 10795 10795 10796 10796 10796 10796 10797 10797 10798 10798 10798 10798 10799 10799 10799 10799 10799 10799 10800 10800 10800 10801 10801 10801 10801 10802 10802 10803 10803 10804 10804 10805 10805 10805 10805 10805 10805 10805 10805 10805 10805 10805 10806 10806 10806 10806 10806 10807 10807 10807 10807 10807 10808 10809 10809 10807 10805 10804 10802 10801 10800 10799 10800 10800 10801
10765 10766 10767 10769 10771 10772 10774 10775 10776 10778 10779 10780 10781 10783 10784 10785 10786 10787 10788 10789 10789 10790 10791 10792 10792 10793 10793 10793 10794 10794 10794 10795 10795 10796 10796 10796 10796 10796 10796 10796 10797 10797 10798 10798 10798 10798 10798 10799 10799 10799 10800 10800 10801 10801 10802 10803 10803 10803 10803 10803 10803 10803 10803 10803 10804 10804 10804 10804 10804 10804 10804 10805 10806 10805 10805 10807 10808 10806 10805 10805 10803 10801 10800 10799 10798 10799 10798 10799
10760 10761 10763 10765 10767 10768 10770 10771 10772 10774 10775 10777 10778 10779 10780 10782 10783 10784 10784 10785 10786 10787 10788 10789 10789 10790 10790 10790 10791 10791 10791 10792 10792 10793 10793 10793 10793 10793 10794 10794 10794 10794 10795 10795 10796 10796 10796 10796 10796 10797 10797 10798 10798 10799 10799 10800 10800 10800 10800 10800 10801 10801 10801 10801 10802 10802 10802 10802 10801 10801 10802 10803 10803 10803 10804 10805 10806 10804 10803 10803 10802 10800 10799 10798 10798 10797 10797 10796
10755 10757 10759 10761 10762 10764 10765 10767 10768 10770 10772 10773 10774 10776 10777 10778 10779 10780 10781 10781 10782 10784 10784 10785 10786 10787 10787 10787 10788 10788 10788 10788 10789 10789 10790 10790 10790 10790 10791 10791 10791 10791 10792 10792 10793 10793 10793 10794 10794 10794 10795 10795 10795 10796 10797 10797 10798 10798 10798 10798 10798 10799 10799 10799 10799 10799 10800 10800 10799 10799 10799 10800 10800 10800 10801 10802 10802 10801 10800 10801 10800 10799 10798 10797 10796 10796 10795 10794
10751 10753 10755 10756 10758 10760 10761 10763 10764 10766 10768 10769 10771 10772 10773 10774 10776 10776 10777 10778 10779 10780 10781 10782 10782 10783 10784 10784 10784 10785 10785 10785 10785 10786 10787 10787 10787 10787 10788 10788 10788 10789 10789 10790 10790 10791 10791 10791 10792 10792 10792 10793 10793 10793 10794 10795 10795 10795 10795 10795 10795 10796 10797 10796 10796 10797 10797 10797 10796 10796 10797 10798 10798 10798 10798 10799 10798 10798 10798 10797 10797 10796 10796 10795 10794 10794 10794 10793
10747 10749 10750 10752 10754 10755 10757 10759 10760 10762 10764 10765 10766 10768 10769 10770 10772 10772 10773 10774 10774 10776 10777 10778 10778 10779 10780 10780 10781 10781 10782 10782 10782 10782 10783 10783 10784 10784 10784 10785 10785 10786 10786 10787 10788 10788 10789 10789 10789 10789 10790 10790 10791 10791 10791 10791 10792 10792 10793 10793 10792 10793 10795 10794 10794 10794 10794 10794 10793 10793 10794 10795 10795 10796 10797 10796 10794 10794 10794 10794 10793 10793 10792 10793 10793 10792 10792 10792
10742 10744 10746 10748 10749 10751 10753 10754 10756 10757 10759 10761 10762 10763 10765 10766 10767 10768 10769 10770 10770 10772 10772 10774 10774 10775 10776 10776 10777 10777 10779 10779 10778 10779 10780 10780 10781 10781 10782 10782 10782 10783 10783 10784 10784 10785 10786 10786 10786 10787 10787 10787 10788 10788 10788 10788 10789 10789 10790 10790 10789 10790 10791 10792 10792 10792 10791 10790 10790 10789 10791 10792 10792 10793 10795 10794 10792 10791 10790 10790 10789 10788 10788 10789 10789 10790 10790 10790
10738 10740 10742 10743 10745 10746 10748 10750 10751 10752 10754 10756 10757 10758 10760 10761 10763 10764 10765 10765 10766 10767 10768 10770 10770 10771 10772 10773 10773 10773 10776 10777 10775 10775 10777 10777 10778 10778 10779 10779 10779 10780 10780 10781 10781 10782 10783 10783 10783 10784 10784 10784 10785 10785 10785 10785 10785 10785 10786 10786 10786 10787 10788 10789 10790 10790 10789 10787 10787 10786 10788 10789 10788 10790 10792 10791 10789 10788 10788 10787 10786 10785 10785 10785 10785 10786 10786 10787
10733 10735 10737 10738 10740 10741 10743 10745 10746 10748 10749 10751 10752 10754 10755 10757 10758 10759 10760 10761 10762 10763 10764 10766 10766 10768 10768 10769 10769 10769 10772 10774 10771 10772 10774 10775 10775 10776 10776 10776 10777 10777 10777 10778 10778 10778 10779 10780 10780 10781 10781 10781 10781 10781 10782 10782 10781 10782 10782 10782 10783 10784 10784 10785 10787 10787 10786 10785 10784 10783 10784 10785 10785 10787 10788 10786 10785 10786 10785 10784 10783 10783 10782 10782 10781 10781 10781 10782
10728 10729 10731 10733 10735 10736 10738 10740 10742 10743 10744 10746 10747 10749 10751 10752 10754 10755 10756 10757 10758 10759 10760 10761 10763 10764 10764 10765 10765 10764 10769 10771 10768 10769 10770 10772 10773 10773 10773 10773 10773 10774 10774 10775 10775 10775 10776 10776 10777 10777 10777 10777 10777 10778 10778 10779 10778 10778 10778 10777 10778 10779 10781 10782 10783 10783 10783 10781 10782 10781 10781 10782 10782 10784 10785 10783 10782 10782 10782 10781 10780 10780 10780 10780 10779 10778 10778 10777
10722 10724 10726 10727 10729 10731 10733 10734 10736 10738 10739 10741 10742 10744 10746 10747 10749 10750 10751 10752 10754 10755 10756 10757 10758 10760 10760 10761 10760 10760 10766 10767 10765 10766 10767 10768 10769 10769 10770 10770 10770 10771 10771 10771 10772 10772 10772 10773 10773 10774 10774 10773 10774 10775 10775 10775 10775 10775 10774 10774 10775 10775 10776 10778 10779 10779 10779 10778 10778 10778 10777 10777 10779 10781 10781 10780 10779 10779 10778 10777 10777 10777 10778 10777 10777 10777 10776 10775
10717 10719 10720 10721 10723 10725 10727 10729 10731 10732 10734 10735 10737 10738 10740 10742 10744 10745 10746 10747 10749 10750 10751 10753 10754 10755 10756 10756 10755 10757 10761 10762 10762 10763 10763 10764 10765 10765 10766 10766 10767 10767 10768 10768 10769 10769 10769 10769 10770 10771 10771 10770 10770 10771 10771 10771 10771 10772 10771 10771 10771 10772 10772 10773 10774 10774 10775 10776 10776 10775 10772 10772 10776 10777 10777 10778 10777 10776 10775 10773 10773 10774 10774 10774 10773 10773 10773 10773
10711 10713 10714 10716 10718 10720 10722 10724 10725 10727 10728 10730 10731 10733 10735 10737 10738 10739 10741 10742 10744 10745 10747 10748 10750 10751 10752 10751 10750 10753 10755 10757 10758 10759 10759 10760 10760 10760 10761 10762 10763 10764 10764 10764 10765 10765 10766 10766 10766 10767 10767 10767 10766 10767 10768 10767 10767 10768 10768 10768 10768 10768 10767 10768 10769 10769 10771 10772 10773 10772 10769 10766 10770 10772 10772 10774 10774 10772 10771 10769 10770 10770 10770 10770 10769 10769 10769 10769
10706 10707 10708 10710 10712 10714 10716 10718 10720 10721 10723 10724 10726 10728 10730 10731 10733 10735 10736 10737 10739 10741 10742 10744 10745 10747 10748 10746 10746 10749 10750 10752 10754 10754 10755 10755 10755 10756 10757 10758 10759 10759 10760 10760 10760 10761 10762 10762 10762 10763 10762 10762 10762 10763 10763 10763 10763 10764 10765 10765 10764 10763 10761 10762 10764 10765 10767 10769 10768 10768 10765 10760 10763 10767 10768 10769 10769 10767 10766 10766 10765 10765 10765 10765 10765 10765 10765 10764
10700 10701 10702 10704 10706 10708 10710 10712 10714 10715 10717 10719 10720 10723 10724 10726 10728 10729 10731 10733 10734 10736 10738 10740 10741 10743 10744 10741 10742 10744 10745 10747 10748 10749 10750 10750 10751 10752 10752 10753 10754 10754 10755 10756 10756 10756 10757 10758 10758 10758 10758 10757 10757 10758 10759 10760 10760 10760 10762 10762 10760 10758 10755 10755 10759 10762 10764 10765 10764 10764 10762 10756 10754 10760 10764 10764 10762 10761 10760 10760 10760 10760 10760 10760 10760 10760 10760 10759
10694 10695 10697 10699 10701 10703 10705 10706 10708 10709 10711 10713 10715 10717 10719 10721 10722 10724 10726 10727 10729 10731 10733 10735 10736 10738 10740 10737 10737 10739 10739 10742 10743 10744 10745 10745 10746 10747 10747 10749 10749 10750 10750 10751 10751 10752 10753 10753 10754 10754 10753 10751 10751 10752 10755 10756 10755 10756 10758 10757 10755 10754 10752 10750 10753 10757 10759 10761 10760 10759 10758 10753 10750 10755 10758 10757 10756 10755 10755 10754 10754 10754 10754 10754 10754 10754 10754 10753
10688 10690 10691 10693 10695 10697 10699 10700 10702 10703 10704 10707 10709 10711 10712 10714 10716 10718 10720 10722 10724 10725 10728 10730 10730 10734 10736 10733 10732 10733 10734 10737 10738 10739 10740 10740 10741 10742 10743 10744 10744 10745 10745 10746 10747 10747 10748 10749 10749 10749 10747 10745 10744 10747 10751 10753 10751 10751 10753 10752 10751 10750 10749 10746 10747 10753 10755 10755 10755 10753 10752 10749 10748 10751 10751 10750 10750 10749 10749 10749 10748 10748 10748 10748 10748 10748 10748 10747
10682 10684 10686 10688 10690 10692 10693 10695 10696 10697 10699 10701 10703 10704 10706 10708 10710 10712 10714 10716 10718 10719 10722 10724 10725 10729 10730 10727 10727 10727 10729 10731 10732 10733 10734 10735 10736 10736 10737 10738 10739 10740 10740 10741 10741 10742 10743 10744 10744 10744 10740 10738 10740 10744 10747 10747 10745 10746 10746 10747 10747 10746 10745 10742 10743 10749 10751 10750 10749 10748 10748 10744 10744 10747 10745 10743 10744 10743 10743 10743 10743 10742 10742 10742 10742 10742 10742 10741
10677 10678 10680 10682 10684 10686 10688 10689 10690 10691 10693 10695 10697 10698 10700 10702 10704 10706 10708 10710 10712 10714 10716 10719 10720 10723 10723 10722 10722 10722 10723 10725 10727 10728 10729 10729 10730 10731 10732 10733 10733 10734 10735 10735 10736 10737 10738 10739 10740 10737 10732 10733 10737 10740 10741 10741 10740 10741 10741 10742 10742 10741 10740 10739 10741 10745 10745 10745 10742 10743 10744 10740 10739 10742 10740 10738 10737 10737 10737 10737 10737 10736 10736 10736 10736 10736 10735 10734
10671 10673 10675 10677 10679 10681 10682 10683 10684 10685 10687 10689 10691 10692 10694 10696 10698 10701 10703 10705 10707 10708 10712 10714 10715 10718 10719 10718 10718 10719 10719 10721 10722 10723 10723 10723 10724 10725 10726 10726 10727 10728 10729 10729 10731 10732 10733 10735 10734 10728 10726 10730 10733 10734 10734 10735 10736 10736 10736 10737 10737 10737 10735 10735 10738 10739 10739 10740 10737 10737 10739 10736 10735 10736 10734 10732 10731 10731 10732 10731 10731 10731 10730 10730 10729 10729 10728 10728
10665 10667 10669 10671 10673 10675 10677 10678 10678 10680 10682 10684 10685 10686 10688 10689 10692 10695 10696 10699 10701 10703 10706 10709 10711 10713 10713 10713 10715 10715 10716 10717 10717 10717 10717 10718 10718 10720 10720 10720 10722 10722 10722 10724 10726 10726 10727 10730 10727 10721 10723 10726 10727 10728 10729 10730 10731 10731 10731 10732 10732 10731 10731 10732 10733 10733 10733 10734 10732 10732 10732 10731 10731 10729 10727 10727 10726 10725 10725 10725 10725 10725 10724 10724 10723 10723 10721 10721
10659 10661 10663 10665 10668 10669 10671 10671 10672 10674 10676 10677 10678 10680 10681 10682 10685 10688 10690 10694 10696 10697 10700 10703 10705 10707 10706 10708 10710 10710 10712 10713 10712 10712 10712 10712 10712 10713 10714 10715 10715 10716 10717 10719 10719 10719 10722 10724 10719 10716 10719 10721 10721 10723 10724 10724 10725 10725 10726 10726 10726 10725 10727 10728 10728 10728 10728 10729 10728 10727 10726 10725 10725 10723 10721 10721 10720 10719 10719 10719 10719 10719 10718 10718 10717 10716 10715 10715
10653 10655 10657 10659 10661 10663 10665 10665 10667 10669 10669 10671 10672 10673 10674 10675 10678 10680 10683 10689 10691 10691 10694 10697 10699 10700 10700 10702 10703 10704 10707 10707 10705 10706 10705 10705 10706 10706 10707 10708 10708 10710 10712 10712 10711 10713 10717 10716 10713 10712 10714 10715 10716 10717 10717 10718 10719 10719 10720 10721 10720 10719 10722 10723 10722 10722 10724 10723 10723 10723 10722 10719 10718 10717 10715 10715 10714 10713 10713 10713 10712 10712 10712 10711 10710 10710 10709 10709
10646 10649 10651 10653 10655 10657 10658 10660 10662 10662 10662 10665 10665 10666 10667 10669 10671 10674 10676 10681 10687 10687 10687 10689 10693 10694 10694 10695 10697 10699 10700 10699 10699 10700 10698 10699 10699 10699 10701 10701 10701 10704 10705 10703 10705 10708 10711 10709 10707 10706 10707 10709 10711 10711 10710 10711 10713 10713 10714 10715 10714 10713 10716 10717 10716 10717 10718 10718 10718 10718 10718 10714 10711 10711 10710 10708 10708 10708 10707 10707 10705 10705 10705 10704 10704 10703 10703 10703
10639 10641 10644 10647 10649 10652 10653 10656 10657 10654 10656 10658 10658 10660 10661 10663 10664 10666 10667 10672 10682 10685 10680 10681 10686 10688 10689 10688 10691 10691 10691 10694 10694 10692 10691 10692 10692 10692 10694 10695 10696 10698 10697 10696 10699 10703 10704 10701 10700 10700 10701 10703 10705 10704 10703 10704 10707 10708 10708 10708 10707 10708 10709 10710 10711 10712 10712 10713 10712 10712 10713 10710 10705 10704 10704 10703 10703 10702 10701 10700 10699 10699 10698 10697 10697 10697 10697 10696
10632 10634 10637 10640 10643 10646 10648 10651 10649 10648 10652 10652 10651 10654 10655 10656 10656 10658 10658 10661 10676 10683 10678 10676 10678 10682 10684 10682 10683 10682 10684 10690 10686 10682 10684 10685 10685 10686 10688 10690 10692 10691 10690 10690 10693 10698 10696 10693 10693 10694 10695 10697 10698 10697 10696 10698 10702 10701 10700 10700 10701 10702 10703 10704 10705 10706 10707 10707 10707 10705 10706 10707 10702 10697 10697 10697 10697 10695 10693 10692 10692 10691 10690 10690 10690 10690 10690 10689
10626 10628 10630 10632 10636 10640 10643 10643 10641 10644 10647 10644 10645 10647 10647 10649 10648 10650 10649 10650 10671 10682 10675 10673 10672 10674 10677 10675 10674 10673 10677 10683 10677 10674 10677 10677 10679 10681 10683 10686 10685 10684 10684 10685 10689 10691 10688 10685 10687 10688 10688 10690 10690 10689 10690 10693 10696 10693 10691 10693 10695 10695 10696 10697 10698 10700 10700 10700 10701 10698 10697 10701 10701 10695 10691 10691 10689 10687 10685 10684 10683 10682 10682 10682 10682 10682 10681 10681
10619 10621 10623 10625 10629 10633 10636 10637 10638 10639 10639 10637 10639 10639 10640 10641 10640 10642 10639 10642 10667 10678 10671 10670 10668 10667 10668 10666 10665 10664 10668 10672 10669 10668 10670 10670 10674 10676 10677 10679 10679 10678 10679 10680 10683 10683 10681 10680 10680 10681 10682 10683 10682 10682 10684 10687 10688 10685 10684 10686 10687 10687 10689 10690 10692 10693 10693 10694 10695 10691 10688 10694 10698 10693 10690 10687 10683 10679 10678 10676 10675 10674 10673 10673 10673 10673 10673 10672
10611 10613 10615 10617 10622 10627 10629 10631 10632 10630 10629 10630 10630 10630 10632 10632 10634 10634 10628 10638 10664 10672 10667 10667 10663 10660 10659 10657 10656 10656 10658 10661 10662 10663 10664 10665 10669 10670 10671 10672 10672 10673 10673 10674 10675 10675 10675 10674 10673 10674 10675 10675 10675 10676 10678 10679 10679 10677 10677 10679 10679 10681 10682 10683 10684 10684 10685 10687 10687 10683 10681 10687 10691 10690 10686 10681 10677 10674 10672 10670 10669 10668 10666 10666 10665 10664 10664 10663
10601 10604 10607 10609 10616 10620 10621 10623 10623 10620 10620 10621 10621 10622 10622 10623 10626 10621 10618 10638 10658 10661 10660 10660 10656 10654 10651 10648 10647 10647 10649 10652 10655 10657 10659 10661 10663 10663 10665 10665 10666 10667 10667 10668 10667 10667 10668 10667 10667 10667 10667 10668 10669 10669 10671 10671 10671 10670 10670 10672 10672 10674 10676 10676 10677 10676 10677 10680 10679 10676 10676 10679 10682 10683 10678 10673 10670 10667 10665 10664 10663 10662 10660 10659 10658 10657 10656 10655
10591 10596 10599 10603 10610 10612 10613 10618 10615 10611 10612 10614 10615 10614 10613 10614 10613 10607 10618 10639 10644 10645 10651 10652 10649 10647 10642 10640 10640 10640 10643 10645 10647 10651 10652 10654 10656 10657 10659 10659 10660 10660 10661 10661 10658 10659 10661 10661 10661 10661 10661 10661 10661 10661 10663 10663 10664 10663 10664 10665 10666 10667 10668 10668 10669 10668 10669 10672 10671 10671 10671 10672 10674 10673 10668 10664 10662 10659 10657 10656 10654 10653 10652 10652 10651 10650 10648 10646
10583 10588 10591 10596 10601 10603 10608 10611 10606 10601 10605 10608 10607 10605 10604 10602 10599 10606 10625 10632 10627 10634 10643 10642 10641 10638 10634 10634 10635 10634 10636 10638 10641 10644 10646 10648 10650 10651 10651 10652 10652 10652 10653 10652 10650 10652 10655 10654 10654 10654 10654 10653 10653 10654 10654 10655 10656 10657 10658 10658 10658 10659 10660 10660 10660 10659 10661 10663 10664 10665 10664 10666 10668 10663 10656 10654 10653 10652 10650 10647 10645 10643 10643 10642 10641 10640 10638 10637
10576 10579 10582 10587 10593 10596 10600 10601 10597 10595 10599 10601 10598 10595 10592 10589 10594 10610 10621 10618 10616 10627 10633 10631 10631 10630 10629 10630 10629 10629 10631 10633 10635 10637 10639 10641 10642 10643 10644 10645 10644 10644 10645 10644 10643 10646 10646 10645 10646 10646 10646 10646 10646 10646 10646 10648 10649 10650 10650 10650 10650 10650 10650 10652 10651 10651 10654 10655 10656 10657 10657 10659 10660 10653 10648 10646 10645 10643 10640 10637 10636 10634 10633 10632 10630 10628 10627 10625
10568 10570 10573 10578 10584 10588 10591 10592 10591 10590 10590 10590 10588 10583 10577 10580 10596 10608 10609 10608 10610 10616 10621 10622 10622 10623 10625 10626 10625 10625 10626 10627 10629 10630 10631 10633 10634 10636 10636 10637 10637 10637 10638 10637 10637 10638 10637 10637 10638 10638 10638 10638 10638 10638 10639 10641 10641 10642 10642 10642 10642 10641 10639 10641 10643 10644 10646 10646 10648 10649 10648 10650 10649 10645 10642 10639 10636 10633 10630 10628 10626 10625 10623 10621 10619 10618 10616 10615
10558 10561 10565 10569 10575 10581 10582 10582 10583 10583 10580 10579 10576 10570 10566 10577 10593 10599 10598 10600 10601 10605 10611 10614 10615 10617 10620 10620 10620 10619 10619 10620 10622 10622 10624 10626 10627 10628 10628 10629 10629 10629 10628 10628 10628 10628 10629 10630 10630 10630 10630 10630 10630 10631 10631 10632 10633 10634 10634 10634 10634 10630 10627 10631 10634 10636 10636 10637 10642 10642 10640 10641 10640 10637 10634 10631 10627 10623 10620 10619 10617 10615 10613 10611 10610 10608 10607 10606
10550 10553 10556 10561 10567 10571 10571 10571 10573 10573 10570 10567 10562 10560 10564 10573 10582 10586 10589 10591 10592 10597 10602 10605 10608 10610 10611 10613 10613 10612 10612 10614 10615 10616 10618 10619 10619 10621 10621 10620 10620 10620 10619 10619 10619 10621 10621 10621 10622 10621 10621 10622 10623 10623 10623 10624 10624 10625 10626 10625 10623 10619 10619 10622 10624 10626 10625 10626 10633 10635 10633 10633 10631 10629 10626 10621 10616 10613 10610 10608 10605 10604 10604 10602 10601 10599 10597 10596
10542 10545 10546 10552 10558 10560 10560 10561 10562 10562 10560 10555 10550 10554 10563 10566 10569 10574 10580 10582 10584 10589 10593 10596 10600 10601 10602 10604 10604 10604 10604 10606 10608 10609 10610 10610 10611 10614 10612 10610 10611 10611 10611 10610 10611 10613 10613 10613 10613 10613 10613 10614 10615 10615 10616 10616 10616 10617 10617 10615 10613 10611 10613 10612 10611 10614 10614 10614 10623 10627 10626 10625 10623 10621 10617 10611 10606 10602 10600 10597 10593 10593 10593 10592 10591 10589 10588 10587
10533 10534 10536 10542 10547 10550 10552 10551 10551 10552 10550 10543 10540 10548 10558 10560 10561 10565 10569 10573 10576 10579 10583 10588 10590 10591 10593 10595 10596 10595 10595 10598 10601 10601 10601 10600 10603 10605 10602 10600 10603 10603 10602 10602 10603 10605 10605 10605 10605 10606 10605 10604 10606 10608 10608 10608 10606 10606 10606 10607 10606 10604 10603 10601 10599 10601 10601 10602 10610 10617 10619 10618 10615 10610 10605 10601 10596 10591 10589 10587 10584 10583 10583 10581 10581 10579 10577 10575
10522 10523 10526 10534 10538 10541 10544 10541 10539 10538 10536 10532 10534 10544 10552 10555 10555 10556 10558 10562 10565 10568 10574 10579 10580 10581 10584 10586 10587 10586 10587 10591 10593 10592 10592 10592 10593 10596 10594 10592 10593 10593 10593 10593 10595 10596 10597 10597 10597 10599 10597 10595 10597 10600 10599 10598 10595 10595 10597 10598 10598 10594 10591 10589 10588 10589 10589 10588 10594 10603 10610 10612 10606 10599 10593 10590 10585 10579 10578 10578 10575 10574 10572 10570 10569 10567 10565 10562
10512 10513 10519 10527 10529 10532 10533 10529 10525 10523 10524 10528 10532 10538 10544 10546 10547 10549 10550 10552 10554 10558 10565 10569 10569 10572 10575 10576 10576 10577 10578 10581 10582 10582 10583 10584 10585 10586 10585 10584 10583 10583 10582 10584 10586 10587 10589 10589 10588 10589 10590 10589 10589 10590 10589 10587 10586 10587 10589 10589 10588 10584 10578 10576 10577 10579 10578 10575 10578 10584 10596 10605 10597 10586 10582 10579 10574 10570 10567 10566 10564 10562 10561 10558 10557 10555 10552 10550
10502 10505 10513 10518 10519 10521 10521 10516 10514 10514 10516 10522 10528 10530 10534 10536 10538 10540 10542 10542 10543 10546 10552 10557 10559 10562 10566 10567 10568 10568 10566 10568 10571 10572 10574 10576 10576 10576 10576 10575 10574 10573 10573 10574 10576 10577 10577 10578 10576 10578 10582 10583 10581 10580 10579 10578 10579 10579 10578 10578 10577 10571 10568 10565 10567 10571 10566 10562 10565 10566 10576 10594 10589 10574 10569 10567 10565 10562 10558 10555 10552 10549 10548 10546 10544 10541 10539 10537
10490 10497 10506 10508 10507 10510 10508 10503 10504 10506 10508 10514 10520 10522 10524 10526 10528 10530 10533 10534 10534 10535 10539 10544 10548 10551 10554 10557 10559 10559 10557 10557 10560 10561 10562 10565 10566 10565 10566 10566 10565 10565 10564 10564 10565 10565 10564 10564 10566 10569 10572 10573 10573 10573 10572 10571 10571 10569 10567 10567 10563 10559 10559 10556 10555 10559 10555 10552 10557 10550 10556 10578 10577 10560 10554 10552 10553 10553 10548 10543 10539 10537 10535 10532 10530 10528 10526 10524
10479 10487 10495 10496 10496 10499 10497 10492 10493 10498 10502 10507 10510 10511 10513 10517 10519 10521 10523 10525 10525 10526 10527 10531 10536 10538 10541 10545 10548 10549 10548 10547 10548 10549 10551 10552 10554 10555 10554 10555 10555 10553 10553 10554 10554 10552 10551 10552 10555 10558 10561 10563 10565 10565 10564 10562 10560 10557 10556 10556 10554 10551 10549 10544 10542 10545 10542 10546 10547 10535 10540 10561 10559 10546 10543 10539 10538 10539 10535 10530 10527 10522 10518 10515 10515 10515 10513 10510
10466 10471 10479 10484 10486 10487 10486 10484 10486 10490 10495 10500 10501 10501 10504 10507 10509 10510 10513 10515 10515 10517 10518 10519 10522 10524 10527 10530 10534 10535 10535 10535 10535 10536 10537 10539 10541 10542 10541 10542 10542 10540 10541 10543 10542 10540 10539 10539 10542 10547 10550 10554 10556 10556 10555 10552 10547 10545 10548 10548 10544 10541 10537 10533 10532 10529 10530 10538 10533 10519 10528 10544 10539 10532 10532 10526 10522 10522 10519 10516 10512 10507 10503 10501 10501 10500 10498 10495
10452 10455 10462 10469 10474 10477 10478 10479 10480 10482 10485 10490 10491 10493 10495 10497 10499 10501 10503 10505 10506 10507 10509 10509 10511 10512 10513 10515 10518 10520 10521 10521 10521 10521 10523 10525 10527 10528 10527 10527 10526 10526 10528 10529 10529 10527 10526 10527 10531 10535 10539 10543 10546 10544 10541 10539 10536 10536 10539 10537 10533 10530 10526 10523 10520 10517 10519 10523 10516 10511 10516 10520 10520 10521 10516 10508 10507 10505 10501 10499 10497 10494 10492 10490 10487 10485 10483 10481
10442 10443 10448 10455 10459 10465 10470 10472 10473 10473 10475 10480 10482 10483 10486 10488 10490 10492 10493 10495 10496 10497 10499 10500 10502 10503 10503 10504 10506 10508 10509 10509 10508 10507 10509 10511 10512 10513 10513 10512 10512 10513 10514 10515 10514 10512 10513 10515 10520 10524 10527 10531 10532 10528 10527 10528 10526 10525 10526 10525 10522 10520 10517 10513 10509 10509 10509 10501 10501 10508 10503 10496 10506 10508 10494 10489 10492 10488 10483 10482 10482 10483 10481 10477 10474 10472 10470 10467
10434 10437 10442 10443 10444 10449 10457 10463 10466 10466 10467 10469 10469 10471 10476 10479 10481 10482 10484 10486 10487 10488 10490 10490 10491 10493 10494 10495 10497 10498 10498 10499 10498 10497 10496 10497 10497 10497 10497 10496 10496 10497 10499 10500 10500 10501 10502 10504 10509 10512 10514 10517 10516 10512 10512 10514 10513 10512 10513 10513 10512 10509 10506 10503 10499 10499 10493 10481 10487 10500 10490 10483 10494 10492 10476 10474 10475 10470 10468 10469 10469 10468 10465 10463 10462 10460 10456 10451
10423 10430 10435 10434 10434 10438 10444 10449 10453 10455 10456 10458 10458 10460 10465 10470 10472 10474 10475 10476 10478 10480 10481 10480 10481 10483 10484 10486 10488 10487 10488 10488 10488 10487 10487 10486 10485 10484 10483 10481 10480 10480 10482 10484 10486 10488 10490 10494 10498 10498 10500 10503 10500 10496 10497 10498 10497 10498 10500 10501 10501 10499 10496 10491 10486 10483 10474 10466 10475 10483 10474 10472 10481 10474 10463 10460 10457 10455 10456 10455 10453 10451 10450 10450 10450 10446 10441 10435
10413 10418 10422 10423 10426 10431 10433 10433 10436 10439 10443 10446 10447 10451 10457 10461 10463 10465 10465 10466 10468 10470 10471 10470 10472 10473 10473 10474 10475 10475 10476 10477 10477 10477 10477 10475 10473 10472 10471 10470 10469 10468 10468 10470 10471 10472 10475 10479 10482 10481 10483 10485 10483 10481 10481 10479 10479 10482 10485 10489 10493 10490 10483 10476 10471 10468 10460 10457 10465 10464 10456 10463 10470 10458 10447 10446 10445 10445 10443 10441 10439 10437 10436 10438 10436 10432 10426 10419
10404 10407 10409 10410 10413 10418 10422 10424 10425 10426 10429 10431 10435 10441 10447 10450 10452 10453 10453 10454 10456 10457 10457 10458 10459 10461 10461 10461 10462 10464 10466 10465 10464 10465 10464 10463 10462 10462 10461 10460 10459 10457 10456 10457 10458 10458 10461 10463 10464 10464 10464 10466 10468 10465 10462 10461 10461 10463 10471 10482 10486 10476 10466 10460 10458 10457 10451 10448 10449 10443 10441 10452 10455 10441 10432 10434 10434 10430 10427 10427 10426 10423 10423 10423 10421 10415 10408 10401
10390 10393 10396 10400 10402 10404 10407 10412 10416 10417 10419 10422 10426 10430 10433 10436 10439 10440 10439 10441 10442 10444 10444 10445 10446 10447 10448 10450 10453 10457 10456 10452 10451 10451 10451 10452 10453 10453 10452 10452 10450 10448 10448 10447 10446 10448 10449 10449 10450 10449 10446 10450 10452 10446 10444 10445 10441 10445 10463 10478 10473 10456 10448 10448 10447 10446 10442 10435 10430 10428 10430 10436 10433 10424 10421 10421 10416 10412 10412 10413 10410 10406 10405 10403 10401 10395 10386 10380
10375 10378 10382 10386 10389 10390 10394 10398 10403 10407 10413 10417 10419 10418 10419 10422 10424 10425 10427 10429 10431 10433 10433 10432 10432 10433 10435 10439 10444 10443 10440 10438 10439 10439 10439 10441 10442 10441 10441 10441 10440 10439 10439 10438 10437 10439 10439 10438 10438 10434 10431 10435 10436 10430 10429 10425 10421 10435 10460 10465 10451 10440 10438 10437 10435 10433 10430 10422 10416 10415 10417 10416 10412 10409 10408 10405 10400 10398 10399 10398 10392 10387 10384 10380 10377 10373 10367 10364